Home   Weather   Steinbach   Past weeks

Flag for Canada Past Weather in Steinbach, Manitoba, Canada — Yesterday and Last 2 Weeks

Now
45 °F

Quite cool.


Feels Like: 45 °F
Forecast: 46 / 66 °F
Wind: 1 mph from East

Location: Winnipeg The Forks Man

Current Time: Sep 29, 2016 at 7:01:24 AM

Latest Report: Sep 29, 2016 at 6:00 AM


Visibility: N/A

Pressure: 30.47 "Hg

Humidity: 93%

Dew Point: 43 °F

Location of SteinbachLocation

Past Weather in Steinbach — Graph

°F

Steinbach Temperature Yesterday

Maximum temperature yesterday: 62 °F (at 5:00 PM)
Minimum temperature yesterday: 42 °F (at 6:00 AM)
Average temperature yesterday: 51 °F

High & Low Weather Summary for the Past Weeks

 TemperatureHumidityPressure
High72 °F (Sep 15, 5:00 PM)100% (Sep 16, 8:00 AM)30.47 "Hg (Sep 16, 8:00 AM)
Low41 °F (Sep 14, 6:00 AM)32% (Sep 19, 4:00 PM)29.45 "Hg (Sep 18, 6:00 PM)
Average57 °F69%29.96 "Hg
* Reported Sep 14 6:00 AM — Sep 29 6:00 AM, Steinbach, Weather by CustomWeather, © 2016

Note: Actual official high and low records may vary slightly from our data, if they occured in-between our weather recording intervals... More about our weather records

Advertising

Steinbach Weather History for the Previous 24 Hours

Scroll right to see more
 ConditionsComfort  
Time TempWeatherWind HumidityBarometerVisibility
6:00 AM
Thu, Sep 29
45 °FQuite cool.1 mph93%30.47 "HgN/A
5:00 AM45 °FCool.1 mph93%30.46 "HgN/A
4:00 AM45 °FQuite cool.No wind93%30.46 "HgN/A
3:00 AM45 °FCool.No wind93%30.45 "HgN/A
2:00 AM46 °FCool.No wind91%30.45 "HgN/A
1:00 AM48 °FCool.2 mph89%30.44 "HgN/A
12:00 AM49 °FCool.1 mph85%30.43 "HgN/A
11:00 PM
Wed, Sep 28
51 °FCool.1 mph82%30.42 "HgN/A
10:00 PM52 °FCool.2 mph80%30.42 "HgN/A
9:00 PM54 °FCool.1 mph76%30.40 "HgN/A
8:00 PM56 °FCool.1 mph71%30.38 "HgN/A
7:00 PM59 °FCool.2 mph63%30.37 "HgN/A
6:00 PM61 °FRefreshingly cool.1 mph56%30.37 "HgN/A
5:00 PM62 °FRefreshingly cool.2 mph54%30.35 "HgN/A
4:00 PM61 °FRefreshingly cool.1 mph56%30.35 "HgN/A
3:00 PM59 °FRefreshingly cool.2 mph56%30.34 "HgN/A
2:00 PM58 °FRefreshingly cool.1 mph58%30.33 "HgN/A
1:00 PM57 °FCool.2 mph62%30.33 "HgN/A
12:00 PM53 °FCool.1 mph69%30.32 "HgN/A
11:00 AM54 °FCool.2 mph65%30.32 "HgN/A
10:00 AM50 °FCool.1 mph80%30.31 "HgN/A
9:00 AM46 °FCool.No wind92%30.29 "HgN/A
8:00 AM42 °FQuite cool.1 mph94%30.27 "HgN/A
7:00 AM42 °FQuite cool.No wind93%30.23 "HgN/A
Weather by CustomWeather, © 2016

See weather overviewHow to use our weather pages